This demonstration page uses our WeatherBlox Daily Observations layout. Learn more.

41.86663, -103.66717

Hourly Observations for January 19, 2020

Temp ( °F °C ) Dew Point ( °F °C ) Humidity (%) Winds ( mph kmh ) Pressure ( in mb ) Visibility ( mi km ) Precip ( " mm )
12:53 am 00:53 Clear 17 -8.3 11 -11.7 77 77 WNW 5 7 30.47 1032 10 16.0934 0 0
1:53 am 01:53 Clear 13 -10.6 10 -12.2 88 88 NNW 7 11 30.48 1032 10 16.0934 0 0
2:53 am 02:53 Clear 13 -10.6 10 -12.2 88 88 Calm 30.49 1032 10 16.0934 0 0
3:53 am 03:53 Mostly Clear 14 -10 10 -12.2 84 84 NNW 7 11 30.49 1032 10 16.0934 0 0
4:53 am 04:53 Clear 14 -10 9 -12.8 80 80 NNW 6 9 30.5 1033 10 16.0934 0 0
5:53 am 05:53 Clear 12 -11.1 9 -12.8 87 87 S 5 7 30.53 1034 10 16.0934 0 0
6:53 am 06:53 Clear 12 -11.1 8 -13.3 84 84 Calm 30.57 1035 10 16.0934 0 0
7:53 am 07:53 Sunny 16 -8.9 11 -11.7 80 80 N 3 6 30.57 1035 10 16.0934 0 0
8:53 am 08:53 Cloudy 20 -6.7 15 -9.4 81 81 W 3 6 30.6 1036 10 16.0934 0 0
9:53 am 09:53 Cloudy 26 -3.3 16 -8.9 66 66 WNW 7 11 30.58 1036 10 16.0934 0 0
10:53 am 10:53 Sunny 34 1.1 17 -8.3 50 50 W 7 11 30.57 1035 10 16.0934 0 0
11:53 am 11:53 Sunny 39 3.9 18 -7.8 43 43 WNW 10 17 30.53 1034 10 16.0934 0 0
12:53 pm 12:53 Sunny 45 7.2 19 -7.2 35 35 WNW 10 17 30.48 1032 10 16.0934 0 0
1:53 pm 13:53 Sunny 47 8.3 17 -8.3 30 30 WNW 13 20 30.47 1032 10 16.0934 0 0
2:53 pm 14:53 Sunny 47 8.3 17 -8.3 30 30 NW 10 17 30.47 1032 10 16.0934 0 0
3:53 pm 15:53 Sunny 45 7.2 17 -8.3 33 33 WNW 7 11 30.47 1032 10 16.0934 0 0
4:53 pm 16:53 Clear 37 2.8 16 -8.9 42 42 NNW 6 9 30.5 1033 10 16.0934 0 0
5:53 pm 17:53 Clear 31 -0.6 15 -9.4 52 52 WNW 3 6 30.54 1034 10 16.0934 0 0
6:53 pm 18:53 Clear 29 -1.7 16 -8.9 58 58 WNW 6 9 30.56 1035 10 16.0934 0 0
7:53 pm 19:53 Clear 28 -2.2 17 -8.3 63 63 WNW 8 13 30.56 1035 10 16.0934 0 0
8:53 pm 20:53 Clear 22 -5.6 14 -10 71 71 N 5 7 30.58 1035 10 16.0934 0 0
9:53 pm 21:53 Clear 24 -4.4 15 -9.4 68 68 NW 7 11 30.54 1034 10 16.0934 0 0
10:53 pm 22:53 Clear 21 -6.1 14 -10 74 74 WNW 7 11 30.52 1033 10 16.0934 0 0
11:53 pm 23:53 Clear 20 -6.7 15 -9.4 81 81 NW 8 13 30.49 1033 10 16.0934 0 0

Powered by AerisWeather